Weather in Prilogino

Russia / Kurgan Oblast     55°28′33″N   66°23′14″E
temp.,
°C
wind,
m/s
gust,
m/s
humid.,
%
clouds,
%
prec.,
mm/h
press.,
hPa
HPBL,
m
17 may, tue
tue1723:00+13sw713715 0.5 998446
02:00+11sw714730 0.0 998588
05:00+9sw513835 0.0 999437
08:00+13sw8116912 0.0 999757
11:00+16wsw9125487 0.1 10001770
14:00+17wsw9124997 0.2 10012061
17:00+17w812488 0.3 10021901
20:00+14wsw476066 0.0 1003169
18 may, wed
wed1823:00+12sw33715 0.0 100532
02:00+11ssw367077 0.0 1005106
05:00+10ssw377596 0.0 1005117
08:00+15ssw5758100 0.0 1006470
11:00+18ssw7847100 0.0 10051759
14:00+19ssw683699 0.0 10042837
17:00+19wsw6835100 0.0 10032284
20:00+15wsw22485 0.0 100316
19 may, thu
thu1923:00+12se33495 0.0 100119
02:00+11w61174100 0.0 1000434
05:00+9sw5889100 0.3 1000504
08:00+11w6881100 1.3 1000649
11:00+14w9115796 1.9 10021707
14:00+15wsw9125397 0.1 10031625
17:00+15w8125196 0.6 10052039
20:00+12w8126121 0.1 10071231
20 may, fri
fri2023:00+7wsw496716 0.1 1009237
02:00+7ssw487169 0.0 1009146
05:00+9ssw41169100 0.0 1008324
08:00+11wsw696699 0.1 1008730
11:00+13wsw5653100 0.1 10071372
14:00+13sw5558100 0.2 10061451
17:00+10wnw1182100 1.9 1005205
20:00+9ne3591100 4.3 1003317
21 may, sat
sat2123:00+8n4893100 6.8 1001502
02:00+8nnw5993100 1.9 1000557
05:00+7n4984100 2.4 1000415
08:00+10nnw456671 0.0 1001754
11:00+13nnw335495 0.0 10001607
14:00+12ene2357100 0.1 9991216
17:00+12nnw1261100 0.1 9991071
20:00+10nnw2374100 0.3 998112